map of GEO home
Great Circle Mapper logo
GEO - Airport
Location
City:  Georgetown, Guyana
Name:Cheddi Jagan International Airport
Old (Alt.):Timehri International Airport
ICAO / IATA:SYCJ / GEO

Details
Type:Airport (Aerodrome, Airfield)
Use:Public/Civil, International (customs port of entry)
Latitude:629'55"N (6.498553)
Longitude:5815'15"W (-58.254118)
Datum:WGS 1984
Elevation:95 ft (29 m)
Variation:16.2W (WMM2010 magnetic declination)
Runways:2
Longest:7448 × 148 ft (2270 × 45 m), paved

Time
Time Zone:UTC-4
Local Time:

Weather
METAR:SYCJ 220700Z 00000KT 9999 SCT015 SCT300 23/23 Q1009 NOSIG
TAF:SYCJ 211724Z 2118/2218 VRB14KT 5000 TSRA FEW010CB BKN014 BKN032
TEMPO 2200/2212 VRB06KT 8000 SHRA

Related Locations
Nearby:
Farthest:BUW: 12346 mi / 19870 km
Bau Bau [Betoambari], Sulawesi Island, ID

Find:

   beyond  
but within

Other Information
Maps:
NOTAMs:
Links:
Sources:

  
flag of Guyana   

Sectional Chart

Flight Planning
at skyvector.com

Satellite Image

Google Maps Satellite View

 

Copyright © 2004-2014 Karl L. Swartz. All rights reserved.
The Great Circle Mapper name and logo are trademarks of the Great Circle Mapper.
All other trademarks mentioned herein belong to their respective owners.
Please see credits for attibutions and further copyright information.

  Follow gcmap on Facebook Follow gcmap on Twitter

hCard Microformat

Geo Microformat